Temp
17 19 19 19 21 20 20 20 20 20 21 21 21 22 24 20 17 18 19 18 17 15 16 14 13 12 12 12 12 12 12 12 12 12 12 12 12 12 12 14 13 15 16 16
17 18 19 19 19 20 20 20 21 21 20 21 22 23 23 19 19 18 19 18 18 17 14 14 13 12 12 12 12 12 12 12 12 12 12 12 12 13 13 13 15 15 16 16
19 19 19 19 18 19 19 20 19 21 20 21 21 22 24 22 19 18 18 20 19 18 15 14 13 13 12 12 11 11 12 12 12 12 12 12 12 13 12 15 16 16 16 16
18 19 19 19 19 19 19 19 20 20 20 21 21 21 22 23 22 20 20 18 19 18 17 15 14 13 13 12 12 12 11 11 12 12 12 12 13 14 14 15 16 16 15 15
18 17 18 18 20 19 21 19 20 20 20 19 20 21 22 21 23 24 24 21 19 19 17 16 15 14 13 12 12 12 12 12 11 12 12 12 14 15 14 15 16 17 15 16
19 18 19 20 19 20 20 20 19 18 19 19 20 21 22 24 25 25 25 23 21 19 18 17 15 14 13 12 11 11 12 12 12 12 12 12 13 14 15 15 15 15 15 15
18 19 19 19 19 19 20 20 19 19 19 20 19 20 23 23 23 23 25 25 22 19 18 18 16 14 13 11 10 10 11 12 12 12 12 12 13 13 14 14 14 14 13 14
18 17 19 20 20 19 19 20 20 19 19 21 18 20 23 23 24 22 22 23 21 20 19 18 17 15 13 11 10 10 11 12 12 12 12 12 12 13 13 13 14 14 13 13
17 18 19 19 20 21 18 19 20 19 17 19 20 20 22 23 24 23 23 23 24 22 20 19 17 16 14 12 11 11 11 12 12 12 12 12 12 12 12 13 13 13 14 14
17 18 19 19 20 20 21 20 19 17 19 19 19 19 22 23 24 25 23 24 24 22 19 19 18 16 15 14 13 11 12 12 12 12 12 12 12 12 12 12 12 13 13 14
18 18 18 20 20 20 19 20 19 19 18 19 19 20 20 23 23 24 24 23 23 23 21 19 18 17 16 15 14 12 12 12 12 12 12 12 11 11 11 11 13 14 14 14
16 15 16 18 19 19 19 19 19 19 19 16 16 20 21 21 21 21 23 22 22 22 22 20 19 17 16 15 15 13 13 13 12 12 12 11 11 11 11 11 11 11 12 13
16 15 16 17 17 16 16 16 16 16 15 17 17 19 21 21 21 22 21 23 23 22 22 20 19 18 17 16 15 14 13 13 13 12 12 11 11 11 11 11 12 12 13 12
15 16 15 16 15 15 15 16 16 17 16 16 17 18 20 21 20 22 23 23 22 22 21 21 19 18 18 17 16 15 14 13 13 13 12 12 12 12 12 12 12 12 12 13
15 15 15 16 16 15 16 16 16 16 16 16 18 18 19 20 21 21 22 22 22 22 22 20 20 19 18 17 16 16 16 14 13 13 13 13 13 12 12 12 12 12 12 13
12 13 13 13 14 15 14 15 16 16 17 17 17 17 19 20 20 19 20 21 21 22 22 21 19 19 18 17 17 17 16 15 14 14 14 14 13 13 12 13 13 13 13 12
11 12 12 13 12 14 14 14 16 17 18 18 17 19 18 18 19 20 20 21 21 21 21 21 21 19 18 17 17 17 17 16 14 14 14 14 14 13 13 13 13 13 13 13
11 11 9 11 11 12 16 15 16 16 17 18 17 17 17 17 17 17 18 20 20 21 20 20 21 20 20 19 17 18 17 16 15 15 15 14 14 14 14 13 13 13 13 12
11 11 11 11 12 14 15 16 16 15 17 16 15 16 16 16 15 18 18 18 18 18 19 20 21 20 20 18 19 17 16 15 15 15 15 14 14 14 13 13 12 12 12 12
9 11 11 10 12 11 14 15 15 16 15 16 15 16 16 15 15 17 17 16 15 16 16 17 19 17 17 18 16 15 15 14 15 15 14 13 12 11 12 12 11 10 9 8
10 9 11 11 11 12 14 15 15 15 16 16 15 16 15 15 15 15 15 15 15 15 15 15 16 16 16 14 14 14 14 14 11 11 11 11 11 11 11 9 8 7 6 4
11 11 11 11 10 11 13 14 14 16 15 15 15 15 15 15 14 15 15 15 14 13 12 13 14 13 10 11 12 12 10 8 10 10 9 9 9 8 7 7 4 3 2 1
11 12 12 12 13 13 13 14 15 13 13 14 14 15 15 14 14 14 14 14 12 11 11 9 10 9 9 9 9 7 6 8 7 6 5 5 4 4 3 3 1 1 1 -0
10 10 11 11 13 14 14 13 10 11 11 11 13 14 14 14 13 12 12 12 10 10 9 8 8 7 6 6 7 6 6 6 5 3 2 2 1 1 1 1 1 0 -0 -1
12 11 11 12 13 12 13 10 8 9 9 9 10 11 8 8 8 9 9 8 7 7 6 5 5 4 4 4 4 4 4 4 2 1 0 -0 -1 -1 -1 -1 -1 -1 -1 -0
10 11 11 12 8 7 9 10 7 7 7 7 6 7 5 5 5 5 3 3 2 3 3 3 2 2 1 0 0 1 1 1 1 1 -0 -1 -2 -2 -3 -4 -5 -4 -2 -2
Height
752 755 750 746 746 751 753 759 761 759 753 754 752 748 735 742 749 749 748 750 754 759 762 764 768 771 773 774 776 778 780 785 788 793 799 806 810 816 822 825 828 832 837 841
754 750 742 747 750 750 752 754 754 752 752 754 744 741 731 739 739 740 742 744 746 753 760 762 765 768 770 772 774 776 779 782 787 792 797 804 809 814 819 822 826 829 833 838
742 739 738 743 751 754 752 752 755 754 756 748 749 744 732 730 735 735 735 734 737 742 751 757 760 763 766 768 771 774 777 781 786 791 796 801 808 813 817 819 820 825 829 834
741 735 739 740 743 747 756 749 750 754 758 757 746 758 739 726 726 727 724 730 729 735 743 749 754 758 761 763 767 771 776 779 783 788 793 796 798 803 808 811 815 820 825 831
735 735 737 742 737 741 740 743 747 749 755 756 753 755 736 732 723 716 711 716 721 726 732 738 743 748 756 761 764 768 773 777 780 784 789 793 798 801 803 808 812 815 822 826
727 725 727 727 732 732 735 742 749 755 757 760 746 746 731 723 713 709 704 704 710 717 724 730 738 743 748 756 760 763 767 771 775 779 784 789 793 797 801 806 810 815 820 823
729 726 722 723 732 735 735 745 759 762 761 748 744 749 722 713 707 704 700 696 704 711 718 723 731 736 740 746 752 757 761 763 768 772 777 782 788 792 796 801 806 810 813 817
729 738 722 717 721 728 736 737 746 755 753 741 748 741 719 703 698 701 700 698 700 705 709 713 717 725 731 735 743 750 754 758 761 766 770 775 781 786 792 798 802 805 808 812
729 727 713 712 712 714 737 742 731 746 753 750 737 727 709 698 697 697 695 695 691 696 701 704 711 716 723 726 729 736 744 750 754 757 762 766 771 776 781 789 792 796 800 802
717 722 712 712 712 716 717 721 740 747 748 748 738 737 720 707 698 689 693 690 687 689 694 697 702 708 713 717 723 730 734 737 742 749 753 757 762 768 774 779 781 785 788 791
712 717 722 709 714 717 725 724 728 729 737 735 741 731 709 697 695 693 689 687 685 683 687 692 695 701 707 713 717 722 727 732 737 741 744 749 753 758 764 766 766 768 773 778
719 726 728 718 711 714 718 721 723 732 734 744 745 726 700 702 699 697 690 686 684 681 680 685 690 695 701 706 709 712 718 723 725 731 739 741 746 750 752 754 758 764 767 770
722 728 731 726 723 723 730 733 733 736 741 738 743 729 701 701 699 694 694 682 678 678 676 680 685 688 691 697 701 703 707 708 717 723 729 735 739 741 741 743 746 752 756 760
722 724 730 728 731 732 735 732 732 732 739 736 734 728 715 705 702 694 687 684 680 678 675 674 679 680 682 687 692 694 697 703 709 714 718 723 726 725 729 735 739 743 745 750
726 729 728 725 727 731 730 729 729 734 732 735 724 721 714 706 698 693 688 683 681 675 673 672 671 671 674 679 683 685 689 693 697 704 708 705 712 720 725 729 732 735 739 740
736 736 738 739 730 728 732 728 726 725 722 719 718 718 702 696 693 693 688 681 678 672 667 665 666 667 668 669 672 677 679 682 687 692 694 700 704 710 714 719 723 727 730 733
745 739 740 735 738 734 735 723 717 712 706 706 711 701 701 700 695 686 679 676 675 668 663 661 658 659 659 660 661 664 665 673 678 680 686 691 696 699 703 710 717 719 722 727
745 744 754 745 745 738 712 712 712 713 706 701 702 703 703 699 694 689 678 673 667 662 657 654 652 651 650 650 653 655 661 664 669 673 677 682 687 690 696 702 707 712 716 719
743 745 746 743 739 722 711 706 708 712 701 704 705 702 699 695 693 682 674 674 672 666 659 655 649 644 643 644 644 650 655 658 662 664 668 673 680 686 691 695 700 706 709 712
743 741 742 747 737 735 716 710 706 703 707 698 700 696 694 692 692 682 672 672 667 660 654 648 644 641 643 638 641 643 645 651 654 657 663 670 676 682 687 692 699 703 706 709
740 748 740 739 736 721 711 707 707 711 706 698 697 692 693 692 690 686 677 668 665 657 647 642 638 636 636 635 634 640 644 648 652 656 661 667 673 679 684 689 698 702 705 711
727 731 733 733 737 730 706 706 709 701 699 697 694 691 690 687 683 679 679 669 660 652 646 642 637 633 635 633 631 639 645 649 651 656 664 670 674 678 683 688 698 703 707 712
721 717 718 717 709 704 705 703 701 703 701 697 694 688 687 685 679 676 678 671 664 656 651 647 645 636 637 633 636 640 647 651 653 657 664 672 678 683 688 693 700 704 710 715
717 716 714 715 701 700 699 704 711 708 703 699 694 687 686 685 679 677 680 674 669 662 659 655 653 650 643 641 643 646 647 654 658 662 667 676 684 686 692 698 703 707 714 719
705 711 709 704 701 702 701 711 715 709 706 703 699 693 695 691 687 691 684 683 679 673 670 663 662 659 654 654 653 655 657 659 663 670 675 680 687 692 697 703 709 711 718 724
709 706 706 699 720 720 715 712 715 712 710 708 706 702 697 686 701 701 691 692 687 685 682 670 669 668 666 663 663 664 667 669 669 673 680 689 693 697 703 710 716 721 723 726
Wind_Speed
5 7 14 17 14 5 6 5 5 3 5 3 4 12 13 8 12 12 12 13 13 13 10 12 10 11 11 12 15 22 29 24 34 29 30 31 30 33 37 38 32 33 31 31
4 15 11 8 8 9 6 6 7 5 3 7 6 13 11 7 8 14 15 14 14 12 12 14 14 12 13 13 15 21 25 30 31 30 25 27 28 32 33 35 33 31 31 31
16 4 14 11 8 10 10 12 6 8 5 3 3 5 7 3 6 7 12 15 14 17 15 16 18 18 16 16 18 18 25 31 32 30 27 25 29 26 27 34 30 30 30 31
11 6 10 9 15 12 12 10 7 6 3 4 2 5 7 6 8 7 10 15 15 17 17 16 19 21 22 20 17 18 22 29 33 33 28 28 30 27 29 33 36 31 28 30
9 8 12 9 11 13 10 8 12 9 7 3 3 5 4 4 7 11 9 13 16 18 20 20 20 26 24 24 23 21 23 25 28 35 36 30 27 27 25 30 36 32 28 31
8 2 8 11 5 16 5 5 3 3 2 7 9 7 5 8 11 5 6 7 11 17 19 19 23 24 23 24 25 23 25 25 27 30 35 32 27 28 26 30 35 33 35 32
5 7 2 3 8 5 7 6 2 4 5 8 2 8 12 8 12 12 13 12 3 12 16 18 19 21 26 27 28 28 30 29 29 31 33 35 33 29 30 29 31 30 27 32
10 5 12 5 5 6 13 10 5 7 5 3 4 6 5 9 13 11 9 9 5 9 13 19 22 26 29 30 29 28 32 32 32 32 33 34 35 33 32 34 32 31 29 27
6 7 4 6 5 9 6 8 5 0 1 2 3 4 9 6 9 7 9 6 10 6 13 17 18 26 29 31 35 35 34 34 34 36 34 34 34 35 34 35 34 37 39 38
4 3 2 4 4 1 8 8 3 1 5 8 3 3 6 3 11 12 8 9 11 5 8 13 16 24 29 31 30 32 35 37 36 35 35 36 36 35 35 32 37 40 40 41
3 2 2 3 4 9 4 7 2 2 3 4 3 4 8 12 7 7 8 8 8 8 7 12 14 21 25 26 29 32 33 32 33 36 36 35 37 37 37 40 47 52 48 48
3 3 4 6 1 2 2 1 3 7 6 1 0 5 4 8 8 8 11 11 10 9 7 9 12 18 23 26 28 32 33 34 36 35 34 37 36 37 40 42 40 35 36 42
5 2 3 2 2 4 6 3 2 2 1 5 4 4 4 8 10 11 12 15 11 7 6 6 10 14 19 25 28 32 33 38 34 33 34 34 35 38 42 42 41 38 41 38
2 2 2 3 3 3 1 3 3 1 2 1 5 8 8 14 13 15 16 15 17 13 7 6 8 13 17 23 27 29 30 31 32 33 35 35 39 44 42 39 37 37 39 36
2 2 2 2 4 5 5 7 7 5 8 6 6 11 11 14 15 15 15 16 15 14 13 9 9 11 13 19 24 27 27 29 33 33 34 41 38 35 35 34 34 34 35 35
8 2 2 3 9 8 7 8 10 13 14 13 14 12 15 15 13 12 16 16 15 14 14 12 9 9 10 17 23 24 25 29 32 32 36 31 31 32 33 34 34 33 33 31
4 2 3 2 2 1 6 8 14 8 9 6 10 12 3 8 13 14 13 16 15 12 13 13 12 10 10 19 25 25 28 25 31 32 30 29 29 30 30 29 29 31 30 27
2 2 2 2 1 5 2 4 4 7 12 14 14 12 13 15 14 20 16 15 17 14 12 12 11 11 18 21 21 26 18 24 27 27 27 27 28 28 24 24 26 25 24 26
10 3 2 2 4 8 10 6 4 6 10 3 3 7 10 12 13 12 6 9 14 17 16 14 18 17 20 18 25 20 17 21 23 26 26 25 26 23 21 21 22 24 24 23
9 4 4 3 3 5 3 1 1 2 6 4 4 8 11 12 10 10 18 18 19 18 16 15 21 16 19 18 15 17 20 20 22 20 18 18 18 20 19 18 20 19 18 17
6 3 10 4 4 7 10 8 2 2 2 2 3 10 8 7 8 16 21 21 18 16 20 23 16 13 14 11 12 14 13 13 14 19 19 19 20 21 19 19 17 18 18 20
8 8 5 6 5 8 3 4 4 2 6 8 9 8 9 11 11 15 19 19 19 17 18 18 13 4 5 6 13 13 12 19 24 25 23 21 20 20 20 22 20 20 25 27
5 6 5 8 6 0 3 2 6 10 10 10 13 15 11 11 10 14 19 19 16 16 12 14 7 5 6 9 14 18 17 24 27 28 25 23 21 22 21 24 25 26 25 25
3 4 4 2 5 13 10 2 6 10 11 14 15 15 9 10 10 14 17 15 12 12 12 12 8 9 12 12 11 17 22 24 27 28 28 27 27 28 26 24 23 23 21 20
5 6 5 8 9 10 3 9 12 13 12 14 15 12 12 15 19 15 10 12 11 12 12 12 12 14 18 17 19 16 17 24 26 26 25 26 27 28 29 26 19 20 15 13
3 4 4 5 3 4 7 12 11 11 13 13 13 13 11 16 14 13 10 12 14 13 13 17 17 17 17 21 24 21 15 17 24 25 22 20 23 24 25 28 32 26 18 15
Wind_Direction
192 199 212 193 206 179 163 175 211 203 230 270 246 276 299 229 219 219 216 205 202 216 212 197 207 195 186 182 179 175 178 167 165 167 170 181 179 175 189 201 214 202 199 198
158 224 218 167 185 191 191 204 240 300 240 212 289 306 309 200 227 217 217 214 206 204 203 193 197 202 195 189 185 184 182 185 171 176 173 182 182 187 197 202 206 199 202 203
203 211 173 178 187 199 219 225 228 243 333 247 276 276 305 248 243 229 216 225 208 202 197 198 192 201 197 198 189 184 186 189 181 180 176 177 181 180 186 191 189 197 201 207
225 227 179 191 205 192 234 204 221 237 282 262 348 289 281 287 283 253 239 212 212 203 197 194 196 197 200 199 197 190 188 185 191 188 188 179 179 179 189 190 194 193 199 203
209 193 187 203 218 185 236 167 205 232 234 286 219 249 233 276 267 258 251 230 213 206 195 194 197 195 199 197 195 192 192 191 187 190 196 194 195 197 188 194 206 207 218 214
204 180 190 208 170 190 188 191 73 62 161 252 210 215 238 232 247 247 256 232 219 201 200 199 199 190 193 200 197 196 194 194 192 191 194 198 196 195 195 202 204 206 217 219
195 214 190 162 186 173 184 147 219 215 207 243 174 190 256 249 243 236 255 277 193 197 196 192 189 192 188 193 197 195 199 199 196 194 197 201 202 201 205 207 210 211 221 227
190 212 191 191 176 179 193 191 181 214 214 233 140 218 233 249 267 270 259 269 269 198 198 198 193 193 194 191 194 195 198 201 198 200 202 202 205 209 212 216 218 223 228 231
178 233 178 195 167 161 156 193 205 91 102 301 229 264 285 296 272 271 259 247 262 235 209 208 197 195 196 195 195 196 198 203 203 202 202 204 206 208 214 219 225 227 236 241
206 163 203 157 116 209 203 157 167 141 226 243 213 245 226 302 244 248 261 273 282 270 213 204 199 197 200 202 200 200 202 203 203 205 206 207 209 211 213 215 221 227 234 240
174 85 226 154 167 169 164 210 184 179 182 238 219 235 221 240 249 261 250 256 278 280 227 206 203 200 204 199 198 202 205 205 207 206 207 206 208 209 212 217 225 228 229 231
20 108 233 241 195 63 46 192 207 233 228 130 308 243 323 269 305 282 276 279 276 272 257 216 198 192 197 205 200 202 203 205 206 207 207 208 208 209 213 219 223 224 226 232
359 36 127 115 97 45 83 68 107 177 139 207 239 270 313 322 312 287 274 290 287 263 277 210 192 196 201 206 204 204 203 206 205 203 204 206 206 209 215 217 218 219 226 230
356 94 81 185 81 98 88 332 4 103 181 208 249 274 290 308 310 311 307 294 289 297 256 248 213 208 206 209 209 207 207 206 202 205 204 207 211 215 217 219 218 218 221 224
45 175 147 195 184 169 205 262 279 243 255 252 279 253 258 261 277 283 288 288 290 285 284 242 234 221 208 210 210 213 210 201 197 202 206 212 215 218 220 221 221 222 223 226
344 154 137 233 265 262 251 245 257 254 256 254 249 254 250 252 279 287 285 284 275 274 272 270 236 235 218 210 212 215 207 202 195 200 212 215 211 213 216 219 221 223 226 229
325 152 147 214 12 280 273 227 222 229 233 244 258 275 224 283 285 280 283 291 279 266 263 267 255 234 226 218 216 213 207 196 196 203 212 212 210 211 214 218 223 225 227 228
240 93 7 162 287 233 270 309 282 257 270 269 275 285 301 294 292 295 289 271 280 265 255 253 259 260 242 228 216 222 210 199 199 206 206 208 207 212 212 212 219 223 223 224
205 154 140 225 215 302 300 289 227 201 282 33 294 296 303 309 305 270 337 329 310 307 299 289 276 254 262 230 227 214 205 201 202 205 205 201 202 206 204 199 203 212 215 213
159 193 218 184 209 239 239 203 14 242 295 217 262 322 321 335 328 320 320 322 312 303 292 287 281 268 263 257 233 199 204 198 204 200 196 185 182 183 185 195 200 196 195 181
157 165 215 194 226 272 247 263 244 206 316 212 281 325 317 315 300 304 304 307 315 303 304 294 271 253 262 246 190 192 180 182 163 154 158 164 171 171 177 174 178 174 158 147
177 177 191 212 234 268 201 143 200 360 322 295 291 304 301 300 311 331 319 317 324 328 327 308 271 243 258 186 150 148 133 135 144 146 144 145 151 153 155 156 153 148 143 131
197 187 190 203 208 243 214 270 299 347 315 307 304 296 302 312 333 354 331 329 334 341 341 337 311 91 71 104 135 125 133 139 134 126 118 120 124 129 136 138 131 127 131 123
236 176 219 235 229 254 278 352 22 350 341 335 320 293 299 333 351 0 330 339 346 356 351 357 18 43 53 68 98 129 130 134 127 116 115 118 116 112 117 120 124 123 124 122
216 151 212 251 266 313 324 39 359 344 351 347 350 9 18 6 356 334 336 357 359 6 8 40 47 47 44 59 67 78 109 126 110 107 107 105 108 105 99 95 103 114 119 135
189 193 214 269 46 309 296 323 355 352 349 350 350 335 23 50 350 344 28 10 13 14 14 42 42 47 56 56 53 58 84 108 116 107 104 109 107 103 98 94 83 80 104 125